Temp
-8 -8 -7 -7 -7 -8 -8 -8 -8 -8 -8 -8 -8 -8 -8 -8 -8 -8 -8 -8 -8 -8 -8 -8 -8 -9 -9 -9 -9 -8 -8 -8 -8 -7 -8 -8 -7 -8 -7 -6 -8 -8 -7
-7 -8 -8 -8 -8 -8 -8 -8 -8 -8 -8 -8 -8 -8 -8 -8 -8 -8 -8 -8 -8 -8 -9 -9 -9 -9 -9 -9 -9 -9 -8 -8 -8 -8 -8 -8 -7 -7 -8 -8 -7 -7 -7
-8 -8 -8 -8 -8 -9 -9 -9 -9 -9 -9 -9 -9 -9 -9 -9 -9 -9 -9 -9 -9 -9 -9 -9 -9 -10 -10 -10 -9 -9 -9 -9 -9 -8 -8 -8 -8 -8 -7 -7 -7 -7 -8
-9 -9 -9 -9 -9 -9 -9 -9 -9 -9 -10 -10 -10 -9 -9 -9 -9 -9 -9 -9 -9 -9 -10 -10 -10 -10 -10 -10 -10 -10 -10 -9 -9 -9 -8 -8 -8 -8 -8 -8 -7 -8 -8
-9 -9 -9 -10 -10 -10 -10 -10 -10 -10 -10 -10 -10 -10 -10 -10 -10 -11 -11 -11 -10 -10 -10 -10 -10 -11 -11 -10 -10 -10 -10 -10 -9 -9 -9 -9 -9 -8 -9 -9 -8 -9 -8
-10 -10 -10 -10 -10 -10 -10 -10 -10 -10 -10 -10 -10 -11 -11 -11 -11 -12 -12 -12 -12 -11 -12 -12 -11 -11 -11 -10 -10 -10 -10 -10 -10 -10 -9 -9 -9 -9 -9 -9 -9 -9 -8
-10 -10 -10 -10 -10 -10 -10 -10 -11 -11 -11 -11 -11 -11 -12 -12 -12 -12 -13 -12 -12 -13 -13 -12 -13 -12 -11 -11 -10 -10 -10 -10 -10 -9 -9 -9 -9 -9 -9 -9 -9 -9 -9
-10 -10 -10 -10 -11 -11 -11 -11 -11 -11 -11 -12 -12 -12 -12 -12 -13 -13 -13 -13 -14 -15 -14 -13 -13 -12 -12 -11 -11 -10 -10 -10 -10 -9 -9 -9 -9 -9 -9 -9 -9 -9 -9
-10 -10 -11 -11 -11 -11 -11 -11 -11 -12 -12 -12 -12 -12 -12 -13 -14 -13 -13 -14 -15 -15 -15 -14 -13 -13 -12 -12 -11 -11 -11 -10 -10 -10 -9 -9 -9 -9 -9 -9 -9 -9 -8
-11 -11 -11 -11 -12 -11 -11 -12 -12 -12 -12 -12 -12 -12 -13 -13 -14 -14 -14 -14 -14 -15 -14 -14 -13 -13 -12 -12 -11 -11 -11 -11 -11 -10 -9 -9 -9 -9 -9 -9 -9 -9 -8
-11 -11 -11 -11 -11 -12 -12 -13 -12 -12 -12 -12 -12 -13 -13 -13 -14 -14 -13 -14 -14 -14 -13 -13 -13 -12 -12 -12 -12 -11 -11 -11 -11 -11 -10 -9 -9 -9 -9 -9 -9 -9 -8
-11 -11 -11 -12 -12 -12 -13 -12 -12 -13 -12 -12 -13 -13 -13 -13 -14 -14 -14 -13 -13 -13 -13 -13 -12 -12 -12 -12 -11 -11 -11 -11 -11 -11 -10 -10 -10 -10 -10 -10 -9 -9 -8
-12 -12 -12 -13 -13 -13 -13 -13 -13 -13 -12 -12 -12 -13 -13 -13 -14 -14 -14 -13 -13 -13 -13 -13 -12 -12 -12 -12 -11 -11 -11 -11 -11 -11 -11 -11 -11 -11 -10 -10 -10 -9 -8
-12 -13 -13 -13 -13 -13 -13 -13 -13 -13 -12 -13 -13 -13 -13 -13 -13 -13 -13 -13 -13 -13 -13 -12 -12 -12 -12 -12 -11 -10 -11 -10 -10 -10 -11 -11 -11 -11 -10 -10 -10 -9 -9
-13 -13 -13 -13 -13 -13 -13 -13 -13 -13 -12 -13 -13 -13 -13 -13 -13 -13 -13 -13 -13 -13 -13 -14 -13 -13 -12 -11 -11 -10 -10 -10 -10 -10 -10 -11 -11 -11 -11 -11 -10 -9 -9
-13 -13 -14 -14 -14 -14 -13 -13 -13 -13 -13 -13 -13 -13 -13 -13 -13 -13 -13 -13 -14 -14 -14 -14 -13 -12 -12 -11 -10 -10 -10 -11 -11 -11 -11 -11 -11 -11 -11 -11 -10 -9 -9
-14 -14 -14 -14 -14 -14 -14 -14 -13 -14 -13 -13 -13 -13 -13 -13 -13 -13 -13 -13 -13 -13 -13 -14 -13 -13 -12 -11 -10 -10 -10 -10 -11 -11 -11 -11 -11 -11 -11 -10 -10 -9 -9
-14 -14 -14 -14 -14 -14 -14 -14 -14 -13 -13 -13 -13 -13 -13 -13 -13 -13 -13 -13 -13 -13 -13 -13 -13 -13 -13 -12 -11 -10 -10 -10 -10 -11 -11 -11 -11 -10 -10 -10 -10 -9 -9
-14 -14 -14 -14 -14 -14 -14 -14 -14 -14 -14 -13 -14 -13 -13 -13 -13 -13 -13 -13 -13 -13 -13 -13 -13 -13 -13 -13 -12 -11 -11 -10 -10 -10 -10 -10 -10 -10 -10 -10 -10 -9 -9
-14 -14 -15 -15 -15 -15 -15 -15 -15 -14 -14 -14 -14 -14 -14 -13 -13 -13 -13 -13 -13 -13 -13 -13 -13 -13 -13 -13 -13 -12 -11 -11 -10 -10 -10 -9 -9 -10 -10 -10 -9 -9 -9
-15 -15 -15 -15 -16 -16 -16 -15 -16 -15 -15 -15 -15 -14 -14 -14 -13 -13 -13 -13 -13 -13 -13 -13 -13 -13 -13 -13 -13 -13 -13 -12 -10 -9 -9 -10 -10 -9 -10 -9 -9 -9 -9
-16 -16 -16 -16 -16 -16 -16 -16 -16 -16 -16 -15 -15 -15 -14 -14 -14 -13 -13 -13 -13 -13 -13 -13 -13 -13 -13 -13 -13 -13 -12 -13 -13 -12 -11 -11 -10 -10 -10 -9 -9 -9 -9
-16 -16 -16 -16 -16 -16 -16 -16 -16 -16 -16 -16 -16 -15 -15 -15 -15 -14 -14 -14 -14 -14 -14 -14 -14 -14 -14 -13 -13 -13 -13 -13 -13 -13 -13 -13 -12 -11 -11 -10 -10 -10 -10
-16 -16 -16 -16 -17 -17 -17 -17 -16 -17 -17 -15 -16 -15 -15 -14 -15 -15 -15 -14 -15 -15 -14 -14 -14 -14 -14 -14 -14 -13 -13 -13 -13 -13 -13 -12 -12 -13 -13 -13 -12 -12 -12
-16 -16 -16 -17 -18 -18 -18 -18 -18 -17 -17 -16 -16 -16 -16 -15 -15 -15 -16 -15 -15 -15 -15 -15 -14 -14 -15 -14 -14 -14 -13 -13 -13 -13 -13 -13 -13 -12 -12 -12 -12 -11 -12
-16 -16 -17 -17 -18 -19 -20 -20 -19 -18 -17 -17 -16 -16 -16 -16 -15 -15 -15 -15 -15 -15 -15 -15 -14 -14 -14 -14 -14 -14 -14 -14 -13 -13 -13 -13 -13 -13 -13 -13 -12 -12 -12
Height
5906 5903 5901 5898 5896 5893 5890 5887 5883 5880 5877 5874 5870 5866 5862 5858 5855 5851 5848 5845 5842 5840 5838 5836 5836 5835 5834 5834 5833 5833 5833 5833 5835 5839 5835 5834 5836 5831 5837 5841 5841 5846 5846
5897 5894 5892 5889 5886 5883 5880 5876 5873 5870 5866 5861 5856 5853 5849 5845 5841 5836 5832 5829 5825 5824 5823 5820 5819 5819 5818 5818 5819 5820 5820 5821 5820 5826 5824 5823 5822 5825 5827 5829 5834 5837 5837
5890 5887 5884 5880 5876 5872 5869 5866 5862 5857 5853 5848 5842 5838 5833 5827 5823 5819 5815 5812 5808 5806 5805 5802 5801 5801 5803 5803 5802 5803 5805 5805 5806 5809 5813 5812 5813 5813 5815 5819 5823 5826 5829
5884 5881 5876 5872 5867 5863 5859 5854 5849 5844 5838 5832 5825 5820 5814 5809 5804 5800 5795 5791 5789 5787 5786 5785 5784 5785 5784 5786 5786 5787 5789 5790 5792 5794 5798 5800 5801 5804 5802 5811 5811 5815 5819
5876 5873 5869 5863 5858 5852 5847 5841 5835 5829 5822 5815 5808 5802 5795 5788 5781 5775 5770 5767 5766 5766 5766 5765 5765 5767 5768 5769 5769 5773 5773 5775 5776 5780 5785 5786 5790 5792 5794 5799 5801 5804 5809
5866 5862 5857 5852 5846 5840 5834 5827 5822 5815 5807 5800 5793 5785 5778 5770 5764 5758 5753 5750 5748 5746 5745 5744 5746 5748 5751 5753 5754 5757 5758 5760 5763 5764 5771 5773 5778 5779 5782 5786 5789 5792 5800
5854 5849 5844 5839 5833 5827 5820 5814 5807 5800 5792 5785 5777 5769 5762 5755 5748 5743 5737 5733 5729 5727 5725 5726 5728 5731 5735 5737 5739 5741 5744 5745 5748 5750 5756 5761 5765 5769 5770 5772 5777 5781 5788
5842 5837 5832 5825 5819 5813 5806 5799 5792 5785 5778 5770 5764 5757 5749 5742 5734 5730 5724 5718 5714 5711 5710 5711 5713 5717 5718 5721 5723 5725 5728 5731 5734 5736 5740 5749 5750 5754 5755 5760 5763 5765 5771
5830 5825 5819 5813 5806 5799 5792 5785 5779 5772 5764 5757 5750 5744 5737 5729 5722 5718 5712 5708 5704 5701 5700 5700 5701 5703 5705 5707 5708 5708 5711 5715 5716 5720 5725 5732 5736 5738 5742 5746 5752 5756 5764
5818 5812 5805 5798 5792 5786 5779 5772 5765 5758 5751 5745 5738 5731 5723 5716 5711 5706 5701 5698 5695 5693 5692 5691 5692 5692 5691 5691 5691 5691 5692 5697 5697 5701 5708 5714 5719 5724 5729 5732 5740 5743 5753
5805 5799 5793 5787 5780 5773 5767 5761 5755 5748 5740 5734 5728 5720 5711 5703 5699 5695 5692 5689 5687 5686 5685 5683 5682 5680 5679 5678 5675 5674 5675 5677 5679 5683 5691 5698 5705 5710 5716 5720 5727 5733 5742
5793 5788 5781 5774 5768 5762 5757 5751 5745 5738 5730 5723 5716 5708 5700 5692 5687 5685 5683 5680 5679 5677 5675 5673 5670 5668 5667 5665 5662 5659 5656 5658 5664 5669 5674 5682 5690 5696 5703 5709 5715 5720 5727
5780 5773 5767 5761 5756 5751 5746 5741 5735 5728 5720 5713 5705 5696 5688 5680 5677 5676 5674 5672 5670 5668 5666 5663 5662 5659 5657 5656 5652 5649 5646 5647 5652 5656 5662 5671 5678 5685 5690 5695 5701 5707 5712
5766 5760 5756 5751 5746 5741 5736 5731 5725 5718 5711 5704 5696 5688 5679 5672 5669 5668 5666 5664 5662 5659 5657 5656 5653 5652 5650 5647 5644 5642 5640 5641 5642 5645 5652 5660 5666 5672 5677 5683 5689 5695 5700
5755 5751 5746 5742 5738 5734 5727 5722 5716 5710 5703 5697 5689 5680 5672 5666 5664 5662 5660 5658 5655 5653 5651 5652 5651 5647 5643 5639 5637 5631 5632 5634 5636 5639 5644 5650 5656 5660 5666 5672 5678 5684 5690
5747 5742 5737 5733 5728 5724 5719 5714 5708 5700 5695 5689 5681 5675 5668 5662 5659 5657 5654 5652 5650 5649 5649 5647 5645 5641 5636 5631 5630 5628 5627 5628 5628 5631 5635 5640 5646 5650 5656 5662 5668 5673 5681
5737 5733 5728 5724 5720 5715 5711 5706 5701 5694 5687 5684 5676 5671 5664 5661 5657 5655 5653 5651 5651 5649 5648 5646 5643 5638 5633 5628 5626 5625 5625 5624 5624 5626 5630 5634 5639 5643 5648 5653 5659 5664 5671
5728 5723 5719 5714 5710 5706 5702 5697 5692 5687 5682 5678 5672 5666 5661 5658 5656 5655 5653 5651 5651 5649 5646 5644 5641 5638 5633 5628 5625 5622 5620 5620 5620 5622 5624 5628 5632 5637 5641 5645 5650 5656 5662
5718 5713 5708 5704 5699 5695 5691 5688 5684 5679 5675 5671 5667 5662 5658 5656 5654 5654 5651 5649 5649 5647 5645 5642 5640 5637 5633 5628 5623 5621 5619 5614 5615 5617 5617 5620 5625 5629 5634 5640 5644 5648 5654
5707 5702 5697 5692 5688 5684 5681 5678 5675 5671 5667 5665 5661 5658 5654 5652 5650 5650 5648 5647 5646 5644 5642 5640 5638 5635 5633 5628 5622 5619 5616 5614 5613 5614 5611 5612 5621 5625 5628 5633 5637 5641 5645
5697 5691 5686 5682 5678 5675 5671 5668 5667 5664 5660 5658 5656 5653 5649 5647 5645 5643 5644 5643 5643 5642 5640 5637 5636 5633 5631 5628 5625 5622 5618 5617 5615 5611 5610 5614 5619 5621 5623 5626 5629 5635 5639
5688 5683 5679 5674 5670 5666 5662 5659 5657 5656 5654 5652 5651 5649 5646 5644 5642 5640 5639 5639 5639 5638 5636 5635 5634 5632 5630 5628 5625 5622 5621 5619 5615 5615 5612 5614 5614 5617 5619 5618 5621 5628 5631
5682 5677 5672 5666 5660 5655 5651 5649 5647 5646 5646 5645 5645 5644 5642 5640 5638 5637 5635 5634 5634 5634 5633 5631 5630 5629 5629 5627 5625 5622 5620 5618 5616 5615 5615 5613 5613 5613 5613 5615 5618 5621 5623
5677 5671 5665 5657 5650 5644 5640 5637 5636 5636 5638 5639 5638 5639 5637 5636 5634 5632 5631 5629 5629 5629 5629 5627 5626 5625 5625 5625 5623 5621 5619 5617 5615 5614 5611 5611 5615 5615 5615 5614 5615 5616 5618
5672 5666 5658 5650 5640 5633 5627 5624 5624 5626 5629 5632 5632 5633 5632 5631 5630 5628 5628 5627 5627 5627 5626 5624 5623 5621 5620 5620 5621 5619 5617 5616 5614 5613 5612 5612 5609 5609 5611 5613 5613 5613 5614
5668 5661 5654 5644 5635 5626 5619 5615 5616 5620 5623 5624 5627 5627 5628 5627 5626 5625 5624 5623 5623 5623 5622 5621 5620 5618 5616 5615 5614 5613 5613 5612 5611 5611 5608 5606 5606 5606 5606 5607 5607 5607 5609
Wind_Speed
30 32 35 36 36 38 39 40 40 42 43 44 46 48 51 53 55 57 58 60 61 59 58 57 55 53 53 50 50 51 50 47 44 38 43 45 43 43 38 39 29 33 31
36 39 40 40 41 42 43 45 48 47 48 50 53 55 58 60 64 66 67 68 68 66 63 61 58 56 57 55 53 52 52 50 49 42 42 44 45 42 40 42 37 34 32
41 43 44 46 48 50 51 51 51 53 55 58 62 64 64 64 65 65 67 67 68 69 69 67 65 60 55 54 54 52 53 53 51 47 43 44 45 44 43 39 37 36 31
43 45 49 51 52 54 55 55 57 60 62 65 66 66 67 67 69 70 70 71 70 70 67 65 59 56 54 52 52 52 52 53 50 48 46 45 46 44 46 40 42 38 33
46 46 52 53 55 56 58 61 64 66 67 68 67 69 72 72 69 66 63 63 63 62 60 62 58 54 52 51 50 48 51 50 50 47 45 47 46 45 46 43 43 43 37
52 51 53 55 56 59 62 65 67 67 66 67 71 70 64 63 64 63 63 61 59 56 54 54 53 52 51 50 49 49 51 50 49 49 44 45 45 45 45 45 45 46 39
52 54 55 57 59 62 65 67 67 66 69 68 60 58 56 56 58 54 52 53 55 52 51 50 49 48 48 49 49 49 49 48 46 51 49 45 45 44 46 46 45 47 44
55 56 57 59 62 64 66 67 66 67 61 56 54 55 55 54 46 44 46 47 44 43 41 41 43 44 45 47 50 52 51 50 49 49 48 47 48 48 49 46 47 50 50
56 57 58 61 63 64 65 65 63 56 54 53 52 51 51 47 44 43 42 40 40 40 37 34 36 38 41 43 46 50 52 51 52 49 48 45 49 52 51 51 48 50 48
55 57 60 60 61 61 62 58 54 51 52 50 49 50 50 48 45 41 41 39 34 32 29 30 33 35 39 43 46 47 49 50 53 53 49 47 49 51 52 53 52 52 48
56 57 57 58 59 56 53 50 47 50 51 47 48 48 49 50 42 39 39 35 30 30 31 32 34 37 36 40 45 50 50 47 44 47 49 50 49 52 53 52 53 53 51
53 53 54 52 49 46 43 43 45 48 46 46 48 48 45 45 37 36 38 33 31 29 32 33 32 34 37 36 33 33 37 44 44 41 44 47 50 51 51 49 51 51 53
50 50 46 45 39 41 41 43 45 45 47 44 47 47 43 35 31 31 33 31 32 33 30 28 32 29 28 32 35 31 28 28 32 39 38 39 43 44 45 49 48 47 51
46 41 41 40 38 38 40 41 42 42 44 41 42 41 38 29 27 27 29 32 32 30 32 33 18 19 26 29 30 27 33 29 29 30 35 40 40 41 43 45 45 45 47
39 40 41 38 38 38 39 39 41 41 41 37 39 43 32 26 22 25 29 29 26 22 7 9 13 17 20 28 29 17 27 26 26 28 33 37 40 42 42 43 42 42 44
37 38 37 37 37 37 36 35 37 41 39 36 39 37 31 26 18 20 18 18 13 9 9 11 15 17 16 10 9 13 18 20 23 26 29 34 36 37 38 40 39 39 40
36 36 37 38 37 36 36 36 36 39 40 33 33 34 30 18 16 14 17 8 6 7 9 12 16 23 19 17 5 18 18 17 18 21 22 25 31 34 35 35 35 36 37
38 38 39 38 38 37 36 35 37 37 36 33 33 33 22 15 12 13 15 13 9 16 14 13 18 20 23 21 12 9 18 22 19 22 24 25 28 31 32 33 34 35 34
38 39 41 41 41 40 38 35 34 35 36 31 30 28 18 11 5 5 11 11 6 9 14 12 14 17 19 26 20 13 3 9 30 29 23 19 24 28 29 30 31 32 34
42 42 41 39 37 36 35 34 31 31 32 27 28 26 24 18 14 12 10 12 11 8 10 11 11 13 17 18 24 18 9 6 8 10 24 25 23 25 26 28 29 31 30
37 35 34 33 32 31 30 30 28 27 30 27 25 25 24 16 13 17 17 16 14 15 14 18 18 18 15 19 23 22 28 20 11 22 22 26 24 29 27 24 33 32 30
29 28 29 30 32 31 32 30 30 30 29 26 20 21 19 12 12 12 11 12 13 14 17 18 18 17 17 20 21 23 22 19 25 13 14 6 16 14 14 17 20 27 26
24 28 31 33 33 32 32 32 31 29 25 22 19 23 19 18 14 16 21 15 11 15 18 18 18 18 18 20 18 19 21 20 17 16 17 19 15 10 6 14 20 16 13
25 29 33 36 35 31 29 28 27 26 19 13 16 17 17 17 16 16 17 11 7 11 14 14 15 17 17 16 18 17 17 20 20 20 20 17 14 16 15 14 14 15 17
26 30 34 36 34 33 29 24 24 21 21 21 13 12 14 11 16 13 10 10 10 11 11 10 11 15 16 16 16 16 17 18 18 18 20 20 20 19 18 20 20 21 21
25 29 31 34 31 29 21 14 14 13 20 23 8 13 14 9 10 9 17 17 19 15 13 14 14 14 16 18 17 18 19 20 21 21 22 23 23 24 23 22 24 23 24
Wind_Direction
297 303 305 306 308 306 305 301 297 296 295 291 289 287 284 285 285 284 284 284 285 284 283 282 282 282 281 281 280 281 281 279 276 267 265 266 264 268 257 255 255 255 257
306 307 308 308 307 303 302 299 298 298 297 293 289 287 286 285 283 282 281 280 280 280 282 282 280 278 278 278 277 278 278 277 275 269 264 263 264 262 260 257 253 254 256
303 304 305 305 303 303 301 301 300 298 295 294 293 294 293 289 286 284 282 280 278 276 276 277 278 278 275 273 272 271 273 273 272 270 263 259 260 261 258 257 255 251 254
297 300 300 299 299 298 302 302 300 300 301 301 300 297 295 293 291 288 285 282 280 278 277 276 276 275 272 271 269 269 269 267 268 267 263 258 256 256 258 256 258 254 249
292 291 286 296 298 302 301 302 302 304 303 300 299 299 300 299 297 296 292 288 284 280 277 273 271 271 268 268 267 268 266 264 263 263 261 256 252 252 255 253 254 255 248
285 290 292 297 300 301 301 302 303 302 302 302 303 304 300 298 297 293 293 291 287 282 276 267 263 264 264 263 263 263 261 259 257 258 259 256 252 249 249 249 250 250 244
290 294 298 300 300 299 301 302 303 303 303 304 303 302 301 299 298 296 292 291 287 279 271 269 262 256 258 260 261 260 259 259 257 255 254 252 253 250 246 243 245 245 242
294 296 298 298 299 300 301 304 303 303 303 303 300 303 302 300 298 298 297 293 289 283 276 265 259 254 257 260 261 261 259 259 258 255 254 245 246 245 244 243 240 239 236
293 295 296 296 298 301 302 302 302 302 303 301 300 303 301 298 295 298 297 294 292 287 277 268 262 258 260 262 263 260 259 257 256 252 251 245 242 244 243 242 241 242 239
293 294 298 300 299 300 301 301 304 303 305 304 304 307 301 297 293 295 296 296 293 290 277 267 267 271 268 267 268 265 262 258 255 252 245 241 241 240 242 242 240 240 236
297 297 297 297 299 300 301 303 301 304 306 303 307 308 306 301 289 292 295 296 291 288 283 278 278 276 272 271 270 267 259 251 250 249 242 240 241 240 240 242 242 241 237
296 298 299 299 297 299 299 302 303 306 306 306 306 309 310 302 287 283 289 290 287 285 286 285 282 281 279 277 276 281 264 250 246 249 245 239 237 238 239 240 241 242 238
300 302 302 303 299 300 301 303 304 305 311 307 310 312 315 296 283 283 286 286 285 288 284 285 285 279 274 276 284 285 274 251 250 246 244 236 236 235 237 239 238 240 236
303 300 302 304 300 301 304 305 309 310 311 309 312 315 312 304 281 279 281 288 291 290 287 290 280 283 280 282 286 275 273 253 249 243 237 237 234 235 237 237 237 237 235
301 299 304 303 301 302 303 305 305 307 312 313 320 321 322 303 287 280 286 290 288 288 280 306 303 297 284 279 280 311 246 247 244 242 236 234 234 235 235 237 235 233 232
301 303 304 303 302 301 302 304 306 309 314 322 325 324 318 326 301 292 296 299 286 258 278 295 310 320 300 271 260 266 268 250 245 240 239 231 231 231 230 232 232 231 228
303 300 297 297 297 298 300 302 302 307 313 321 323 323 319 304 322 311 323 306 337 337 326 328 320 322 332 329 288 275 274 264 247 231 231 226 225 226 226 227 226 226 226
301 299 298 297 297 297 296 297 298 301 305 313 321 324 315 301 305 311 334 341 345 319 313 312 317 318 326 328 284 294 276 257 242 231 225 224 226 224 225 224 223 224 227
301 300 298 298 299 299 299 298 296 295 300 309 319 325 307 296 283 307 329 317 293 270 312 311 313 323 329 331 325 252 234 280 244 241 232 206 222 218 217 221 226 229 230
302 301 299 298 298 298 294 293 294 292 293 300 309 319 310 289 256 227 266 276 305 301 323 312 323 325 330 327 331 325 293 1 203 217 204 194 203 212 216 219 224 230 235
305 305 304 302 301 300 297 291 289 295 301 301 306 318 312 309 287 231 244 243 276 289 302 316 324 316 319 327 330 336 336 340 175 133 130 200 226 235 231 223 224 233 241
313 314 312 308 302 298 292 289 288 284 285 299 305 309 308 295 246 228 230 250 276 293 302 308 312 313 317 316 312 319 322 331 330 332 274 212 180 181 191 219 201 218 230
320 324 322 316 309 302 294 285 279 279 279 285 283 289 314 299 273 258 267 249 265 285 292 295 302 308 311 309 307 300 311 315 318 322 324 331 323 296 308 221 219 229 244
321 325 328 326 319 312 309 290 281 268 256 258 279 284 294 298 303 267 271 266 280 291 290 295 304 307 309 309 307 308 309 313 308 309 312 305 295 295 302 293 290 287 275
325 329 332 331 327 320 310 288 263 257 238 232 260 276 266 297 308 281 272 289 298 302 302 305 304 309 307 306 305 308 308 302 300 301 298 295 296 295 286 275 267 268 272
331 331 337 343 340 340 334 309 266 249 243 245 258 283 286 281 309 286 257 261 279 278 287 294 297 305 310 309 303 303 301 298 297 295 293 293 290 286 281 280 279 270 267